This is the latest recevied weather packets stored in our database for station/object KE5WTH-14. If no packets are shown the sender has not sent any weather packets the latest 10 day(s).
| Time | Temp. | Humidity | Pressure | Rain* | Wind** | Luminosity | Snow |
|---|---|---|---|---|---|---|---|
| 1788717817 | 35.56° C | 50% | 1014.2 hPa | 0 mm | - | 876 W/m² | - |
| 1788717761 | 35.56° C | 50% | 1014.3 hPa | 0 mm | - | 874 W/m² | - |
| 1788717698 | 35.56° C | 50% | 1014.2 hPa | 0 mm | - | 874 W/m² | - |
| 1788717635 | 35.56° C | 51% | 1014.3 hPa | 0 mm | - | 872 W/m² | - |
| 1788717576 | 35.56° C | 51% | 1014.3 hPa | 0 mm | - | 872 W/m² | - |
| 1788717515 | 35.56° C | 50% | 1014.3 hPa | 0 mm | - | 872 W/m² | - |
| 1788717455 | 35.56° C | 51% | 1014.4 hPa | 0 mm | - | 872 W/m² | - |
| 1788717394 | 35.56° C | 50% | 1014.5 hPa | 0 mm | - | 872 W/m² | - |
| 1788717334 | 35.56° C | 50% | 1014.3 hPa | 0 mm | - | 870 W/m² | - |
| 1788717274 | 35.56° C | 51% | 1014.4 hPa | 0 mm | - | 869 W/m² | - |
| 1788717214 | 35.56° C | 51% | 1014.4 hPa | 0 mm | - | 867 W/m² | - |
| 1788717154 | 35.56° C | 51% | 1014.4 hPa | 0 mm | - | 867 W/m² | - |
| 1788717095 | 35.56° C | 51% | 1014.4 hPa | 0 mm | - | 863 W/m² | - |
| 1788717034 | 35° C | 51% | 1014.5 hPa | 0 mm | - | 863 W/m² | - |
| 1788716973 | 35° C | 51% | 1014.5 hPa | 0 mm | - | 863 W/m² | - |
| 1788716913 | 35° C | 52% | 1014.5 hPa | 0 mm | - | 860 W/m² | - |
| 1788716852 | 35° C | 50% | 1014.4 hPa | 0 mm | - | 860 W/m² | - |
| 1788716792 | 35° C | 51% | 1014.5 hPa | 0 mm | - | 860 W/m² | - |
| 1788716731 | 35° C | 50% | 1014.5 hPa | 0 mm | - | 862 W/m² | - |
| 1788716672 | 35° C | 50% | 1014.6 hPa | 0 mm | - | 862 W/m² | - |
| 1788716611 | 35° C | 51% | 1014.6 hPa | 0 mm | - | 863 W/m² | - |
| 1788716551 | 35° C | 51% | 1014.5 hPa | 0 mm | - | 862 W/m² | - |
| 1788716491 | 35° C | 51% | 1014.6 hPa | 0 mm | - | 860 W/m² | - |
| 1788716431 | 35° C | 50% | 1014.7 hPa | 0 mm | - | 858 W/m² | - |
| 1788716373 | 35° C | 50% | 1014.6 hPa | 0 mm | - | 858 W/m² | - |
* Rain latest hour (hover to see other rain measurements)
** Current wind speed in m/s (hover to see current wind gust speed)